sat.trackr.live / text

‹ back to catalog

STARLINK-32854

NORAD 62816 · 2025-018L

PAYLOAD ACTIVE UNKNOWN

§ Identity

Operator
Country
US
Launch date
2025-01-24
Launch site
AFWTR
Launch vehicle
Mass (kg)
RCS (m²)

Purposes: comms

External: N2YO · Heavens-Above · Gunter

§ Orbital elements

Epoch: 2026-09-21T22:31:24.499200Z

Period
93.85 min
Inclination
53.1575°
Eccentricity
0.0001556
Mean motion
15.34403230 rev/d
Perigee alt
461.6 km
Apogee alt
463.8 km
Semi-major
6,840.8 km
B*
3.7555e-4
RAAN
115.3011°
Arg perigee
126.5044°
Mean anomaly
233.6102°
Rev number
9,324

§ Raw data

STARLINK-328541 62816U 25018L   26264.93847800  .00012334  00000+0  37555-3 0  99982 62816  53.1575 115.3011 0001556 126.5044 233.6102 15.34403230 93242

JSON: /api/v1/satellites/62816 · /tle

For live sub-satellite position, see the globe view (requires WebGL).

§ Visibility from observer

Set your observer location to see the next 7 days of passes ≥ 10°. The values pass through the URL so the page stays shareable.

No JS? Fill the form by hand. The geolocation button needs JavaScript.